User: anonymous   Login
Location: PACMO
(41.3967°N, 90.3760°W)
Time: 08:07:49
(UTC-05:00)
Language:

NOAA 19 - Orbit

View from above orbital plane
View from above orbital plane
View from above satellite
View from above satellite

Ground track
Ground track

The orbit data is extracted from the following two-line orbital elements,

1 33591U 09005A   16204.58671615  .00000090  00000-0  74035-4 0  9999
2 33591  99.0425 161.6550 0014937 117.0478 243.2219 14.12090659384137
Epoch (UTC): 22 July 2016 14:04:52
Eccentricity: 0.0014937
inclination: 99.0425°
perigee height: 841 km
apogee height: 863 km
right ascension of ascending node: 161.6550°
argument of perigee: 117.0478°
revolutions per day: 14.12090659
mean anomaly at epoch: 243.2219°
orbit number at epoch: 38413

The dashed part of the orbit path shows where the satellite is in the earth's shadow,  

DLR